Hoonah, AK

3:53 PM AKDT on August 28, 2016 (GMT -0800)
Hoonah

Weather History for PAOH - August, 2013

Change the Weather History Date:

Saturday, August 17, 2013

  Actual Average Record
Temperature  
Mean Temperature 58 °F -  
Max Temperature 61 °F 61 °F 75 °F (2004)
Min Temperature 55 °F 49 °F 10 °F (2008)
Degree Days  
Heating Degree Days 7    
Growing Degree Days 8 (Base 50)    
Moisture  
Dew Point 57 °F    
Average Humidity 95    
Maximum Humidity 100    
Minimum Humidity 88    
Precipitation  
Precipitation 0.09 in - - ()
Sea Level Pressure  
Sea Level Pressure 29.68 in    
Wind  
Wind Speed 4 mph (East)    
Max Wind Speed 10 mph    
Max Gust Speed -    
Visibility 7 miles    
Events Rain    
Averages and records for this station are not official NWS values.
T = Trace of Precipitation, MM = Missing Value Source: NWS Daily Summary

Daily Weather History Graph

Daily Weather History Graph

Search for Another Location

Airport or City:

Trip Planner

Search our weather history database for the weather conditions in past years. The results will help you decide how hot, cold, wet, or windy it might be!

Date:

Astronomy

Aug. 17, 2013 Rise Set
Actual Time 5:29 AM AKDT 8:40 PM AKDT
Civil Twilight 4:43 AM AKDT 9:26 PM AKDT
Nautical Twilight 3:39 AM AKDT 10:29 PM AKDT
Astronomical Twilight 1:50 AM AKDT 12:10 AM AKDT
Moon 6:23 PM AKDT (8/17) 1:14 AM AKDT (8/17)
Length of Visible Light 16h 42m
Length of Day
15h 10m
Waxing Gibbous, 85% of the Moon is Illuminated
Aug 17
Waxing Gibbous
Aug 20
Full
Aug 28
Last Quarter
Sep 5
New
Sep 12
First Quarter

Hourly Weather History & Observations

Time (AKDT) Temp. Dew Point Humidity Pressure Visibility Wind Dir Wind Speed Gust Speed Precip Events Conditions
12:56 AM 57.9 °F 57.9 °F 100% 29.81 in 10.0 mi Calm Calm - N/A   Overcast
1:56 AM 56.8 °F 56.8 °F 100% 29.80 in 10.0 mi Calm Calm - N/A   Overcast
2:19 AM 55.4 °F 55.4 °F 100% 29.79 in 4.0 mi Calm Calm - N/A   Overcast
2:56 AM 55.9 °F 55.9 °F 100% 29.79 in 10.0 mi Calm Calm - N/A   Overcast
3:56 AM 55.4 °F 55.4 °F 100% 29.78 in 10.0 mi Calm Calm - N/A   Overcast
4:56 AM 55.9 °F 55.9 °F 100% 29.78 in 10.0 mi Calm Calm - N/A   Overcast
5:34 AM 55.4 °F 55.4 °F 100% 29.76 in 8.0 mi Calm Calm - 0.00 in   Overcast
5:56 AM 55.9 °F 55.9 °F 100% 29.76 in 9.0 mi Calm Calm - 0.00 in   Overcast
6:08 AM 55.4 °F 55.4 °F 100% 29.76 in 9.0 mi Calm Calm - N/A   Overcast
6:24 AM 57.2 °F 57.2 °F 100% 29.76 in 10.0 mi Calm Calm - N/A   Mostly Cloudy
6:56 AM 57.2 °F 57.2 °F 100% 29.76 in 10.0 mi East 4.6 mph - N/A   Mostly Cloudy
7:56 AM 59.0 °F 57.9 °F 96% 29.75 in 10.0 mi ENE 5.8 mph - N/A   Partly Cloudy
8:56 AM 59.9 °F 57.9 °F 93% 29.75 in 10.0 mi ENE 9.2 mph - N/A   Partly Cloudy
9:56 AM 60.8 °F 57.2 °F 88% 29.73 in 10.0 mi ENE 6.9 mph - N/A   Mostly Cloudy
10:56 AM 59.9 °F 57.9 °F 93% 29.73 in 7.0 mi East 6.9 mph - 0.00 in Rain Light Rain
11:56 AM 61.0 °F 57.9 °F 90% 29.71 in 10.0 mi East 8.1 mph - 0.00 in Rain Light Rain
12:56 PM 60.8 °F 57.2 °F 88% 29.70 in 9.0 mi East 8.1 mph - N/A   Overcast
1:56 PM 59.9 °F 57.9 °F 93% 29.69 in 9.0 mi East 8.1 mph - 0.00 in Rain Light Rain
2:25 PM 59.0 °F 57.2 °F 94% 29.69 in 3.0 mi East 6.9 mph - 0.04 in Rain Rain
2:56 PM 59.9 °F 57.9 °F 93% 29.68 in 10.0 mi East 9.2 mph - 0.05 in   Overcast
3:56 PM 60.8 °F 57.2 °F 88% 29.66 in 9.0 mi East 8.1 mph - N/A Rain Light Rain
4:56 PM 59.9 °F 57.9 °F 93% 29.65 in 10.0 mi East 8.1 mph - 0.00 in   Overcast
5:56 PM 59.9 °F 57.9 °F 93% 29.64 in 3.0 mi East 10.4 mph - 0.01 in Rain Light Rain
6:00 PM 60.8 °F 57.2 °F 88% 29.63 in 2.5 mi East 9.2 mph - 0.00 in Rain Light Rain
6:14 PM 59.0 °F 57.2 °F 94% 29.62 in 4.0 mi East 10.4 mph - 0.00 in Rain Light Rain
6:36 PM 59.0 °F 57.2 °F 94% 29.61 in 10.0 mi East 9.2 mph - 0.00 in   Overcast
6:56 PM 60.8 °F 57.2 °F 88% 29.61 in 1.5 mi East 10.4 mph - N/A Rain Light Rain
7:03 PM 59.0 °F 57.2 °F 94% 29.62 in 2.5 mi East 10.4 mph - 0.00 in Rain Light Rain
7:16 PM 59.0 °F 57.2 °F 94% 29.61 in 4.0 mi East 9.2 mph - 0.00 in Rain Light Rain
7:31 PM 59.0 °F 57.2 °F 94% 29.61 in 2.5 mi East 10.4 mph - 0.00 in Rain Light Rain
7:35 PM 59.0 °F 57.2 °F 94% 29.61 in 3.0 mi East 9.2 mph - 0.00 in   Overcast
7:42 PM 59.0 °F 57.2 °F 94% 29.61 in 2.5 mi East 9.2 mph - 0.00 in Rain Light Rain
7:56 PM 59.0 °F 56.8 °F 93% 29.61 in 3.0 mi East 9.2 mph - 0.01 in   Mostly Cloudy
8:05 PM 59.0 °F 57.2 °F 94% 29.61 in 4.0 mi East 9.2 mph - 0.00 in Rain Light Rain
8:18 PM 59.0 °F 57.2 °F 94% 29.61 in 5.0 mi East 6.9 mph - 0.00 in   Mostly Cloudy
8:25 PM 59.0 °F 57.2 °F 94% 29.60 in 2.5 mi East 6.9 mph - 0.00 in Rain Light Rain
8:32 PM 59.0 °F 57.2 °F 94% 29.60 in 3.0 mi East 6.9 mph - 0.00 in   Overcast
8:56 PM 59.0 °F 57.9 °F 96% 29.60 in 3.0 mi East 9.2 mph - 0.01 in Rain Light Rain
8:59 PM 59.0 °F 57.2 °F 94% 29.60 in 2.5 mi ENE 6.9 mph - 0.00 in Rain Light Rain
9:11 PM 59.0 °F 57.2 °F 94% 29.60 in 6.0 mi East 10.4 mph - 0.01 in   Mostly Cloudy
9:56 PM 57.2 °F 57.2 °F 100% 29.61 in 8.0 mi ENE 9.2 mph - N/A   Mostly Cloudy
10:56 PM 56.8 °F 55.9 °F 97% 29.61 in 10.0 mi ENE 6.9 mph - N/A   Mostly Cloudy
11:56 PM 57.9 °F 55.9 °F 93% 29.62 in 9.0 mi ENE 6.9 mph - 0.01 in Rain Light Rain